{"data":{"norad_id":49758,"epoch":"2026-05-25T00:04:20.273088Z","epoch_age_seconds":81583,"freshness":"FRESH","line1":"1 49758U 21115AL  26145.00301242 -.00000309  00000+0 -13380-5 0  9996","line2":"2 49758  53.2139 156.5367 0001242  89.6783 270.4351 15.08833984247195","mean_motion":15.08833984,"eccentricity":0.0001242,"inclination_deg":53.2139,"raan_deg":156.5367,"arg_perigee_deg":89.6783,"mean_anomaly_deg":270.4351,"bstar":-1.338e-6,"rev_number":24719,"period_min":95.437935204938,"perigee_km":538.9025745023,"apogee_km":540.62098055863,"semimajor_km":6917.8987775305,"source":"CELESTRAK","updated_at":"2026-05-25T13:38:16.838711Z"}}